Location: De Forest
(43.2480°N, 89.3440°W)
Time: 22:57:47
(UTC-05:00)

Tiangong 2 - Pass Details

Date: 01 June 2019
Orbit: 376 x 388 km, 42.8° (Epoch: 25 June)

Event Time Altitude Azimuth Distance (km) Brightness Sun altitude
Rises 21:20:36 0° 271° (W) 2,238 5.8 -8.1°
Reaches altitude 10° 21:23:40 10° 238° (WSW) 1,381 4.1 -8.6°
Maximum altitude 21:24:55 12° 214° (SW) 1,272 3.6 -8.7°
Drops below altitude 10° 21:26:09 10° 190° (S) 1,376 3.6 -8.9°
Enters shadow 21:27:13 - 174° (S) 1,605 3.8 -9.0°
